Regional Weather Roundup
Issued by NWS

Home | Current Version | Previous Version | Text Only | Print | Product List | Glossary On
Versions: 1 2 3 4 5 6 7 8 9 10 11 12 13 14 15 16 17 18 19 20 21 22 23 24 25 26 27
000
ASUS45 KBOU 281610
RWRCO

WEATHER ROUNDUP FOR COLORADO
NATIONAL WEATHER SERVICE DENVER/BOULDER CO
1000 AM MDT WED SEP 28 2016

NOTE: "FAIR" INDICATES FEW OR NO CLOUDS BELOW 12000 FEET WITH NO
SIGNIFICANT WEATHER AND/OR OBSTRUCTIONS TO VISIBILITY.

COZ001>005-013-030-031-281700-
...NORTHWEST COLORADO...

CITY           SKY/WX    TMP DP  RH WIND       PRES   REMARKS
CRAIG          FAIR      54  37  52 CALM      30.36F
HAYDEN         FAIR      57  32  38 E13       30.36S
MEEKER         FAIR      56  38  50 VRB3      30.36S
MOUNT WERNER   NOT AVBL
STEAMBOAT SPGS FAIR      54  35  47 CALM      30.38F
WALDEN           N/A     52  27  37 CALM      30.50S
$$

COZ006>008-011-281700-
...WEST CENTRAL VALLEYS...

CITY           SKY/WX    TMP DP  RH WIND       PRES   REMARKS
GRAND JUNCTION FAIR      66  39  37 SE14      30.27S
MONTROSE       FAIR      61  37  41 CALM      30.34S
EAGLE          SUNNY     52  30  43 CALM      30.44F
RIFLE          FAIR      60  40  47 CALM      30.33S
DELTA          NOT AVBL
NUCLA          FAIR      59  37  44 CALM      30.37S
$$

COZ017>023-064>068-281700-
...SOUTHWEST COLORADO...

CITY           SKY/WX    TMP DP  RH WIND       PRES   REMARKS
DURANGO        FAIR      58  38  47 VRB3      30.38S
CORTEZ         FAIR      60  39  45 CALM      30.32S
PAGOSA SPRINGS FAIR      59  29  32 CALM      30.44S
TELLURIDE      FAIR      56  36  45 CALM      30.51S
WOLF CREEK PAS FAIR      48  25  40 E9        30.71S
$$

COZ009-010-012-014-032>034-037-058>063-281700-
...CENTRAL COLORADO...

CITY           SKY/WX    TMP DP  RH WIND       PRES   REMARKS
ASPEN          FAIR      58  32  37 N3        30.42F
BUENA VISTA    FAIR      59  28  30 N3        30.49F
COPPER MTN     FAIR      59  23  25 SE10G16   30.71R
BERTHOUD PASS  FAIR      43  30  61 SE20G26   30.74S
COTTONWOOD PAS FAIR      61  21  21 E6        30.60R
GUNNISON       FAIR      49  30  48 CALM      30.49F
KREMMLING      FAIR      50  27  40 CALM      30.49S
LEADVILLE      FAIR      52  25  35 W5        30.58R
MONARCH PASS   FAIR      46  27  46 E16       30.80R
SALIDA         FAIR      57  29  34 CALM      30.55S
SUNLIGHT       FAIR      54  32  43 E3        30.64R
WILKERSON PASS FAIR      50  19  29 SE3       30.71S
$$

COZ069>075-281700-
...SAN LUIS VALLEY/SANGRE DE CRISTO MOUNTAINS...

CITY           SKY/WX    TMP DP  RH WIND       PRES   REMARKS
ALAMOSA        FAIR      56  30  37 NW6       30.46S
LA VETA PASS   FAIR      59  32  36 MISG      30.61R
SAGUACHE       NOT AVBL
$$

COZ035-036-038>040-281700-
...NORTHERN COLORADO FRONT RANGE...

CITY           SKY/WX    TMP DP  RH WIND       PRES   REMARKS
DENVER INTL AP FAIR      68  30  24 NW6       30.36R
DMNS CITY PARK   N/A     68  33  27 SW2       30.37R
AURORA         SUNNY     67  31  26 VRB6      30.38R
FRONT RANGE AP SUNNY     70  30  23 NW3       30.37R
ERIE MUNI ARPT FAIR      68  29  23 N7        30.35S
BOULDER MUN AP FAIR      70  32  24 N7        30.35S
CENTENNIAL     FAIR      67  29  24 NW5       30.38R
BROOMFIELD     SUNNY     68  30  24 N6        30.38R
FORT COLLINS   FAIR      66  36  32 NE8       30.35R
LONGMONT       FAIR      72  36  27 NE6       30.36R
$$

COZ041-046-047-076>085-087-088-281700-
...PIKES PEAK/PALMER DIVIDE AND SOUTHERN FOOTHILLS...

CITY           SKY/WX    TMP DP  RH WIND       PRES   REMARKS
COLO. SPRINGS  FAIR      74  24  15 E7        30.39R
A. F. ACADEMY  FAIR      70  29  21 VRB5      30.40R
SCHRIEVER AFB  NOT AVBL
ELLICOTT       NOT AVBL
FALCON         FAIR      71  23  16 E6        30.44R
FORT CARSON    FAIR      73  30  20 NW12      30.36R
LIMON          FAIR      73  29  19 MISG      30.35R
MONUMENT HILL  FAIR      63  30  29 N5        30.46R
TRINIDAD       FAIR      70  30  22 W6        30.36R
$$

COZ042>045-048>051-090-091-281700-
...NORTHEAST COLORADO...

CITY           SKY/WX    TMP DP  RH WIND       PRES   REMARKS
GREELEY ARPT   FAIR      63  37  39 CALM      30.34S
AKRON          FAIR      66  35  31 NW5       30.33R
BURLINGTON     FAIR      70  37  29 CALM      30.29R
WRAY           NOT AVBL
STERLING       FAIR      63  39  42 CALM      30.30S
HOLYOKE        FAIR      73  41  31 N9        30.28R
FORT MORGAN    FAIR      66  36  32 CALM      30.34R
$$

COZ086-089-092>099-281700-
...SOUTHEAST COLORADO...

CITY           SKY/WX    TMP DP  RH WIND       PRES   REMARKS
PUEBLO         FAIR      74  32  21 SW5       30.30R
LA JUNTA       FAIR      70  33  25 CALM      30.28R
LAMAR          FAIR      68  38  33 N3        30.25R
SPRINGFIELD    NOT AVBL
$$




USA.gov is the U.S. government's official web portal to all federal, state and local government web resources and services.